Date,TemperatureHighF,TemperatureAvgF,TemperatureLowF,DewpointHighF,DewpointAvgF,DewpointLowF,HumidityHigh,HumidityAvg,HumidityLow,PressureMaxIn,PressureMinIn,WindSpeedMaxMPH,WindSpeedAvgMPH,GustSpeedMaxMPH,PrecipitationSumIn
2013-1-1,32.5,28.1,18.2,31.0,24.6,14.7,97,87,73,30.24,30.09,11,2,11,0.01
2013-1-2,24.9,16.8,8.3,18.2,12.8,6.5,94,85,65,30.35,30.21,8,1,8,0.00
2013-1-3,31.6,19.8,4.4,23.3,14.3,1.9,92,80,57,30.39,30.29,19,3,19,0.00
2013-1-4,32.9,28.3,23.5,24.9,21.6,18.2,84,76,66,30.41,30.33,21,6,25,0.00
2013-1-5,38.1,29.5,17.6,29.1,23.6,15.5,94,79,66,30.47,30.24,12,2,12,0.06
2013-1-6,37.6,33.5,26.7,33.2,28.7,22.9,92,82,76,30.39,30.08,22,6,22,0.02
2013-1-7,37.7,30.4,25.1,28.8,25.4,22.0,92,82,65,30.57,30.35,10,2,10,0.00
2013-1-8,48.9,32.4,20.5,35.8,26.6,18.6,94,80,58,30.43,30.32,10,2,10,0.00
2013-1-9,48.3,40.2,31.2,41.3,34.9,26.5,90,81,73,30.59,30.29,16,3,16,0.06
2013-1-10,40.3,33.5,25.4,33.3,29.6,24.1,95,86,75,30.64,30.24,18,4,18,0.00
2013-1-11,61.3,51.4,40.1,54.5,46.4,33.2,94,83,70,30.25,29.96,24,7,24,0.32
2013-1-12,65.0,58.9,53.0,60.8,55.5,50.0,97,89,76,30.10,29.89,16,4,16,0.01
2013-1-13,65.0,60.9,39.0,60.6,57.0,37.2,96,87,77,30.11,29.82,35,8,35,0.42
2013-1-14,39.0,30.0,25.5,37.4,25.3,21.8,94,82,72,30.49,30.11,21,5,21,0.00
2013-1-15,32.2,27.9,22.4,24.8,22.7,19.9,92,81,71,30.48,30.16,18,5,18,0.00
2013-1-16,35.1,31.6,30.4,29.6,26.4,24.3,91,81,75,30.17,30.02,15,3,15,0.00
2013-1-17,37.6,32.9,26.7,31.4,27.7,18.5,89,81,66,30.41,30.14,22,3,22,0.00
2013-1-18,35.1,27.4,16.7,25.1,18.2,10.9,95,69,56,30.61,30.31,21,5,21,0.00
2013-1-19,53.4,40.7,35.0,29.5,25.1,23.0,64,54,33,30.31,29.93,31,10,32,0.00
2013-1-20,44.6,35.8,23.6,33.4,21.8,12.2,69,57,39,30.26,29.92,31,10,31,0.00
2013-1-21,23.9,21.6,10.1,16.7,12.1,-1.1,84,67,54,30.29,30.11,26,8,26,0.00
2013-1-22,15.5,9.4,6.2,1.4,-2.1,-4.2,69,59,48,30.46,30.29,21,8,21,0.00
2013-1-23,20.5,15.0,9.2,15.1,5.8,0.5,91,68,44,30.44,30.18,17,4,17,0.00
2013-1-24,20.9,16.4,13.1,14.5,9.9,6.3,91,75,59,30.67,30.18,22,4,22,0.00
2013-1-25,23.1,18.6,15.2,20.2,13.2,7.1,91,79,65,30.59,30.13,17,4,17,0.00
2013-1-26,28.2,25.1,18.1,22.7,19.4,12.4,91,79,68,30.55,30.20,13,4,13,0.00
2013-1-27,33.3,23.8,11.7,28.6,17.5,8.8,90,77,63,30.59,30.33,14,4,14,0.00
2013-1-28,50.3,41.1,31.3,49.1,39.2,29.0,97,93,85,30.33,30.09,20,5,20,0.56
2013-1-29,69.3,59.2,49.7,56.3,52.8,48.9,97,80,61,30.12,29.70,27,7,27,0.00
2013-1-30,65.5,55.9,33.8,57.5,50.1,28.5,94,81,70,29.70,29.28,37,11,42,0.47
2013-1-31,34.7,26.4,19.3,29.2,19.7,11.7,93,76,59,30.01,29.50,37,11,37,0.00
2013-2-1,19.2,12.2,7.2,13.3,5.1,0.7,85,73,65,30.47,30.01,25,7,25,0.00
2013-2-2,26.5,19.9,8.7,24.6,16.2,4.0,93,85,75,30.45,30.08,19,4,19,0.00
2013-2-3,25.9,22.0,19.9,23.0,17.8,12.1,95,84,71,30.19,29.98,18,4,18,0.00
2013-2-4,30.6,20.9,14.8,29.1,16.4,12.1,95,83,62,30.20,29.93,13,2,13,0.00
2013-2-5,33.2,29.3,26.8,28.9,25.6,23.1,96,86,78,30.07,29.94,14,2,14,0.00
2013-2-6,36.9,31.0,22.5,29.2,23.8,17.8,86,75,54,30.38,30.07,13,3,13,0.04
2013-2-7,48.3,35.6,22.7,33.5,27.8,18.0,86,74,54,30.34,29.91,16,4,16,0.01
2013-2-8,45.9,35.3,26.3,40.1,29.4,18.4,93,79,69,30.38,29.83,26,9,26,0.18
2013-2-9,35.1,27.4,17.9,21.9,19.3,15.7,93,72,55,30.52,30.36,18,3,18,0.00
2013-2-10,50.0,38.0,26.6,41.4,27.0,19.3,81,65,47,30.36,29.91,13,6,19,0.02
2013-2-11,53.2,46.5,38.8,47.1,36.5,26.2,91,69,45,30.06,29.81,39,11,39,0.00
2013-2-12,47.2,37.1,29.6,29.8,26.6,24.6,83,66,45,30.19,29.98,32,5,32,0.00
2013-2-13,32.5,29.8,25.1,30.0,27.0,23.7,95,89,83,29.99,29.82,8,2,8,0.00
2013-2-14,46.5,33.4,23.4,38.7,30.6,21.9,97,90,73,30.04,29.90,21,5,21,0.17
2013-2-15,37.6,32.1,27.0,31.7,28.4,23.5,95,86,75,30.20,30.04,18,2,18,0.02
2013-2-16,28.7,23.4,16.1,24.3,18.2,10.3,95,80,60,30.18,30.06,21,4,21,0.00
2013-2-17,26.5,18.2,11.1,13.9,9.6,6.6,85,70,45,30.35,30.15,18,4,18,0.00
2013-2-18,51.7,35.0,16.8,33.8,21.7,10.3,77,60,44,30.36,29.85,31,7,31,0.01
2013-2-19,50.1,32.6,21.6,39.0,26.8,13.9,95,79,49,30.14,29.73,44,11,44,0.12
2013-2-20,22.6,20.2,16.7,16.5,12.4,8.9,80,72,59,30.38,30.13,24,9,24,0.00
2013-2-21,27.6,23.6,20.6,19.3,16.4,12.3,82,73,68,30.45,30.28,19,5,19,0.00
2013-2-22,42.2,33.9,25.6,39.5,30.3,18.5,96,87,74,30.29,30.00,26,6,26,0.01
2013-2-23,41.6,36.4,30.8,33.5,29.2,25.2,91,76,56,30.06,29.96,17,3,17,0.00
2013-2-24,34.4,29.8,26.9,25.4,22.1,20.4,86,73,59,30.24,29.99,17,4,17,0.00
2013-2-25,44.0,33.3,20.5,27.3,23.6,18.5,93,69,47,30.29,30.06,18,4,18,0.00
2013-2-26,43.7,36.0,33.8,41.5,28.3,24.0,96,74,63,30.06,29.53,27,9,27,0.45
2013-2-27,43.7,37.7,32.6,41.0,35.0,30.6,95,90,83,29.77,29.56,24,7,24,0.19
2013-2-28,36.9,33.8,31.1,33.7,31.3,29.0,95,91,83,29.98,29.72,17,6,17,0.04
2013-3-1,33.6,31.1,27.3,29.4,25.4,19.7,87,79,69,30.11,29.97,11,5,13,0.00
2013-3-2,28.9,26.8,25.4,23.4,21.7,19.5,88,81,72,30.13,30.07,13,5,15,0.00
2013-3-3,30.0,26.1,23.5,20.8,18.0,15.0,87,72,54,30.15,30.08,14,4,14,0.00
2013-3-4,40.7,29.3,16.4,23.3,18.3,14.3,96,66,39,30.25,30.12,12,1,12,0.00
2013-3-5,40.6,34.8,30.1,31.0,27.3,22.7,96,75,58,30.17,29.60,21,6,21,0.12
2013-3-6,37.9,34.4,31.8,32.9,31.2,28.2,97,88,80,30.28,29.59,15,4,15,0.60
2013-3-7,41.1,35.0,31.2,32.0,28.8,27.3,87,78,60,30.42,30.26,16,4,16,0.00
2013-3-8,45.2,35.6,28.2,30.6,26.7,23.2,88,71,48,30.54,30.42,14,3,14,0.00
2013-3-9,56.9,41.6,26.1,33.5,29.2,23.6,91,65,36,30.47,30.14,16,4,16,0.00
2013-3-10,70.1,58.2,47.4,36.6,33.5,30.5,56,41,26,30.15,29.90,20,5,20,0.00
2013-3-11,63.9,53.5,41.9,50.8,41.6,35.1,92,66,36,29.92,29.63,29,7,29,0.35
2013-3-12,42.0,36.7,33.8,35.7,31.2,27.5,92,80,65,30.08,29.85,20,5,20,0.01
2013-3-13,33.6,30.1,27.5,31.3,23.8,17.0,94,78,59,30.33,30.04,28,8,28,0.00
2013-3-14,41.9,28.3,22.4,25.5,18.4,16.5,87,67,40,30.40,30.22,23,5,23,0.00
2013-3-15,49.4,39.0,26.5,40.7,30.6,20.2,92,72,60,30.23,29.91,15,3,15,0.09
2013-3-16,55.2,42.7,32.0,48.2,39.3,28.3,95,88,73,30.09,29.66,22,5,22,0.11
2013-3-17,37.9,33.9,31.4,28.6,26.8,24.2,87,75,60,30.24,30.09,17,6,17,0.00
2013-3-18,50.4,40.5,31.7,49.3,38.0,26.3,96,91,75,30.15,29.67,29,7,29,0.88
2013-3-19,41.6,36.0,30.4,36.0,24.1,13.7,83,63,36,30.11,29.85,35,11,35,0.00
2013-3-20,37.2,31.1,23.3,21.8,17.5,11.2,76,57,43,30.11,29.98,27,8,27,0.00
2013-3-21,29.0,21.8,17.9,20.7,14.0,9.3,87,72,53,30.08,30.00,18,4,18,0.00
2013-3-22,42.5,26.4,21.3,25.6,17.7,16.1,82,71,37,30.13,30.06,19,3,19,0.00
2013-3-23,47.7,34.5,21.3,25.7,21.3,17.4,90,62,32,30.15,30.02,16,2,16,0.00
2013-3-24,36.1,32.9,30.9,31.3,26.1,20.5,96,77,54,30.04,29.49,25,9,25,0.00
2013-3-25,34.6,32.6,31.4,32.6,31.0,29.7,97,94,87,29.94,29.47,17,4,18,0.24
2013-3-26,41.2,35.7,32.2,33.0,28.9,22.0,95,78,49,30.24,29.94,21,6,21,0.13
2013-3-27,42.5,37.3,32.8,30.7,26.7,21.3,88,67,44,30.33,30.23,23,8,23,0.00
2013-3-28,48.4,35.0,29.3,27.6,25.1,22.7,86,68,42,30.37,30.31,20,4,20,0.00
2013-3-29,52.9,39.5,26.5,31.9,27.6,23.0,92,65,40,30.38,30.26,16,2,16,0.00
2013-3-30,57.2,43.1,25.9,34.6,26.5,22.6,92,58,27,30.32,30.02,12,1,12,0.00
2013-3-31,55.3,46.7,40.9,46.7,39.2,27.9,93,76,51,30.02,29.80,18,3,19,0.08
2013-4-1,47.7,40.4,33.1,40.4,24.7,14.8,85,55,35,30.17,29.81,24,7,24,0.00
2013-4-2,43.4,34.1,24.8,20.3,16.4,13.5,78,49,32,30.32,30.17,21,4,21,0.00
2013-4-3,44.7,35.1,24.0,22.8,14.8,9.7,78,45,28,30.49,30.32,22,4,22,0.00
2013-4-4,54.3,39.3,28.6,26.1,17.4,13.2,59,43,22,30.45,30.05,12,3,13,0.00
2013-4-5,56.9,42.8,26.4,33.7,25.1,20.3,84,53,30,30.23,30.03,20,4,20,0.00
2013-4-6,62.6,46.0,29.9,23.8,19.7,13.0,66,39,18,30.33,29.99,16,5,16,0.00
2013-4-7,73.0,64.0,53.6,48.6,40.5,20.9,64,43,25,30.03,29.91,22,8,27,0.00
2013-4-8,72.6,63.1,51.2,53.3,50.8,47.5,91,66,44,30.03,29.91,29,6,29,0.00
2013-4-9,81.4,68.3,53.1,57.7,54.0,50.0,90,63,39,30.12,29.94,30,6,30,0.00
2013-4-10,82.8,70.7,60.2,63.6,58.9,55.0,88,67,49,29.99,29.82,29,8,30,0.00
2013-4-11,69.3,62.0,56.2,62.2,58.0,53.9,96,87,78,29.91,29.58,19,4,19,0.56
2013-4-12,59.3,48.8,41.8,58.2,43.5,33.9,97,82,65,29.96,29.52,24,6,24,0.34
2013-4-13,54.4,45.1,37.9,38.2,35.6,32.9,82,70,51,30.11,29.95,26,6,26,0.00
2013-4-14,66.3,49.8,34.4,42.3,37.2,31.8,91,65,36,30.19,29.98,17,4,17,0.00
2013-4-15,70.6,62.0,50.4,53.7,48.5,39.6,72,61,52,30.07,29.97,20,5,20,0.00
2013-4-16,78.0,64.9,56.8,64.8,56.5,50.9,98,75,56,30.21,30.01,26,6,26,0.95
2013-4-17,66.9,59.4,54.0,61.3,56.7,52.1,98,91,81,30.27,30.05,18,6,18,0.10
2013-4-18,85.8,72.4,60.1,63.4,57.8,51.6,92,64,31,30.07,29.68,28,8,28,0.00
2013-4-19,74.7,53.5,40.1,60.2,42.7,31.3,92,68,48,29.99,29.46,37,10,37,0.51
2013-4-20,46.9,40.3,33.6,32.8,28.4,23.9,93,64,42,30.47,29.99,34,7,34,0.02
2013-4-21,53.1,40.6,27.4,29.9,25.5,21.9,88,58,30,30.63,30.47,23,4,23,0.00
2013-4-22,68.7,53.8,37.0,41.9,33.7,25.3,67,48,32,30.48,30.21,16,3,16,0.00
2013-4-23,71.5,60.4,46.3,47.7,39.1,30.4,56,46,33,30.22,29.93,18,5,18,0.00
2013-4-24,65.0,52.7,36.9,55.6,44.8,34.0,95,76,51,30.25,29.81,28,7,28,0.76
2013-4-25,57.1,45.0,34.5,40.2,34.0,25.5,95,68,42,30.44,30.25,23,5,23,0.00
2013-4-26,61.5,47.2,29.9,37.8,31.7,27.6,92,59,31,30.54,30.41,14,2,14,0.00
2013-4-27,72.2,56.3,40.2,45.2,37.3,29.6,83,53,22,30.42,30.15,16,4,16,0.00
2013-4-28,65.2,58.1,53.4,57.8,53.6,44.7,97,86,61,30.15,29.88,15,4,15,0.66
2013-4-29,64.1,59.2,54.7,58.0,55.6,52.9,97,88,72,30.03,29.92,11,3,11,0.07
2013-4-30,75.5,57.2,47.4,58.4,51.8,46.9,98,85,49,30.13,30.03,12,2,13,0.00
2013-5-1,80.0,68.5,56.4,60.1,54.7,51.6,85,63,39,30.26,30.11,17,5,17,0.00
2013-5-2,75.3,66.7,57.9,56.2,52.9,48.9,74,62,48,30.30,30.15,17,4,17,0.00
2013-5-3,77.2,67.1,56.6,54.7,45.5,31.8,82,51,19,30.18,30.06,18,6,24,0.00
2013-5-4,71.5,63.0,54.5,47.9,43.4,38.0,66,49,40,30.12,30.02,22,7,22,0.00
2013-5-5,71.5,62.5,51.5,43.8,39.8,34.4,73,46,28,30.08,29.95,25,6,25,0.00
2013-5-6,66.5,60.4,56.7,57.8,48.5,36.2,93,66,37,30.03,29.97,14,4,14,0.15
2013-5-7,69.2,61.6,55.0,59.7,55.2,52.0,90,80,61,30.02,29.96,20,4,20,0.04
2013-5-8,72.2,62.5,53.7,55.5,53.4,50.8,91,73,51,30.02,29.94,16,3,16,0.00
2013-5-9,79.2,66.3,52.0,59.5,54.3,48.8,97,69,35,30.06,29.97,13,2,13,0.00
2013-5-10,73.6,64.4,59.0,63.2,59.6,55.4,96,85,66,30.01,29.83,32,4,32,1.21
2013-5-11,61.3,54.2,46.2,60.0,50.3,39.4,96,87,74,30.01,29.85,30,5,30,0.02
2013-5-12,53.1,46.5,38.5,40.1,33.5,28.1,93,63,41,30.18,30.00,25,6,25,0.00
2013-5-13,57.2,47.2,36.8,37.8,31.3,25.4,93,57,32,30.25,30.16,17,2,17,0.00
2013-5-14,76.5,49.0,38.6,56.4,38.8,33.9,84,71,37,30.22,29.86,24,2,24,0.00
2013-5-15,87.4,76.7,65.8,60.2,58.2,55.2,75,54,36,29.88,29.79,19,8,27,0.00
2013-5-16,77.0,69.0,63.7,64.9,61.2,54.7,95,77,51,30.01,29.83,20,2,20,0.27
2013-5-17,80.5,64.7,61.0,66.6,61.3,57.1,98,90,48,30.13,30.01,14,2,14,0.01
2013-5-18,79.4,69.1,61.0,65.0,60.5,56.1,91,75,58,30.12,30.01,15,4,15,0.01
2013-5-19,80.0,70.6,62.0,67.5,63.8,59.9,94,80,60,30.06,29.94,13,3,13,0.00
2013-5-20,86.0,71.4,64.7,71.7,66.6,63.5,98,86,53,30.05,29.91,17,3,17,0.00
2013-5-21,86.5,76.7,70.0,69.3,65.8,60.0,93,71,41,29.96,29.83,31,4,31,0.11
2013-5-22,79.7,72.3,64.2,65.2,62.2,59.6,93,71,54,29.89,29.76,24,5,24,0.16
2013-5-23,73.3,63.9,49.2,62.8,57.9,44.3,95,82,53,30.08,29.81,27,7,27,0.03
2013-5-24,57.5,50.1,43.5,44.7,38.7,34.3,88,66,45,30.37,30.08,22,6,22,0.00
2013-5-25,63.7,51.8,36.7,43.3,39.0,35.1,95,65,41,30.45,30.29,14,3,14,0.00
2013-5-26,70.0,55.5,39.2,44.0,35.4,27.0,92,53,22,30.39,30.26,13,2,13,0.00
2013-5-27,68.7,54.4,49.9,53.7,44.2,39.5,84,69,46,30.30,30.05,22,4,22,0.05
2013-5-28,84.3,74.6,62.4,64.1,60.2,53.5,82,62,44,30.08,29.97,26,7,26,0.00
2013-5-29,87.5,78.2,69.3,62.8,60.0,53.8,71,55,33,30.10,30.01,25,6,25,0.00
2013-5-30,88.6,78.2,65.8,66.9,63.2,60.1,88,62,40,30.19,30.05,17,4,17,0.00
2013-5-31,87.0,75.3,66.1,68.2,63.5,60.4,94,69,46,30.11,29.97,30,5,30,0.36
2013-6-1,83.6,75.5,66.3,68.9,66.3,64.4,95,74,55,30.01,29.81,27,7,27,0.50
2013-6-2,78.1,71.1,65.6,68.1,61.6,57.3,95,73,51,29.93,29.80,21,5,21,0.46
2013-6-3,67.5,62.4,56.5,59.7,54.0,44.9,83,74,57,30.11,29.93,15,4,15,0.00
2013-6-4,73.3,61.8,46.6,51.5,45.5,39.6,81,57,39,30.22,30.11,15,4,15,0.00
2013-6-5,82.0,68.7,55.0,62.1,52.9,45.6,75,58,42,30.16,29.91,15,4,15,0.00
2013-6-6,71.3,67.1,60.7,67.0,64.1,58.4,96,90,72,29.92,29.79,13,3,13,0.58
2013-6-7,70.2,61.0,55.8,58.7,55.9,53.2,96,84,63,29.94,29.84,17,5,17,0.00
2013-6-8,76.3,65.1,53.2,59.6,55.2,51.5,96,72,50,30.11,29.93,8,1,8,0.00
2013-6-9,83.6,72.9,64.1,66.4,61.3,54.3,85,69,39,30.14,29.97,14,4,14,0.01
2013-6-10,77.3,68.9,65.6,67.6,64.8,62.3,96,87,62,29.98,29.79,22,4,22,0.66
2013-6-11,84.0,72.4,62.4,66.7,63.5,61.0,96,76,50,29.98,29.86,17,4,17,0.00
2013-6-12,87.8,73.8,68.3,74.2,67.4,64.1,91,81,60,29.95,29.73,18,1,18,0.00
2013-6-13,81.4,70.5,64.6,72.4,61.6,52.9,96,76,47,29.91,29.59,34,6,34,0.94
2013-6-14,76.4,68.1,56.5,58.5,56.3,53.3,93,68,48,30.10,29.91,19,4,19,0.00
2013-6-15,79.8,68.8,53.0,62.1,57.7,51.8,96,70,44,30.17,30.01,11,2,11,0.00
2013-6-16,78.0,71.8,67.7,68.0,64.8,61.1,89,79,68,30.01,29.96,22,4,22,0.07
2013-6-17,85.0,74.1,66.4,70.6,67.2,64.2,96,81,52,30.01,29.91,13,3,13,0.00
2013-6-18,81.2,71.5,62.8,70.1,64.8,56.0,96,80,54,30.02,29.88,34,4,34,0.33
2013-6-19,77.9,66.6,55.1,56.8,51.7,42.8,92,62,30,30.18,30.02,13,3,13,0.00
2013-6-20,84.0,69.7,54.4,58.8,54.0,49.6,90,62,34,30.26,30.17,11,2,11,0.00
2013-6-21,86.8,67.2,58.7,64.0,58.3,56.0,91,75,36,30.27,30.16,15,2,15,0.00
2013-6-22,89.3,78.1,64.7,72.1,65.6,61.6,91,67,46,30.20,30.07,15,3,15,0.00
2013-6-23,88.8,77.9,65.5,71.0,66.2,62.1,95,70,45,30.17,30.05,16,3,16,0.00
2013-6-24,86.3,76.6,64.8,70.7,66.5,62.0,91,72,54,30.17,30.03,19,3,21,0.03
2013-6-25,90.8,79.4,68.0,74.0,69.7,64.7,92,73,52,30.09,29.90,23,5,23,0.00
2013-6-26,85.5,76.1,67.5,72.4,68.6,63.8,95,79,59,29.95,29.81,20,5,20,0.34
2013-6-27,84.7,74.1,66.3,72.4,68.6,65.1,97,84,60,29.84,29.68,19,3,19,0.37
2013-6-28,82.4,74.2,65.9,69.7,65.0,55.5,93,74,49,29.70,29.57,25,4,25,0.07
2013-6-29,79.8,69.0,62.4,66.3,62.2,59.0,92,80,59,29.72,29.59,18,3,18,0.00
2013-6-30,80.3,69.0,62.5,68.0,63.9,61.0,96,85,60,29.88,29.70,21,3,21,0.02
2013-7-1,82.5,71.9,65.6,67.7,64.6,61.7,92,79,51,29.96,29.85,14,4,14,0.03
2013-7-2,83.3,73.7,67.1,69.9,66.9,64.9,94,80,59,30.06,29.93,15,3,15,0.00
2013-7-3,83.0,75.4,68.2,71.2,68.5,66.5,95,80,60,30.16,30.05,13,2,14,0.00
2013-7-4,76.3,72.2,70.0,70.1,68.7,66.8,96,89,76,30.21,30.14,12,3,12,0.33
2013-7-5,78.8,71.4,66.7,70.2,68.0,65.5,97,90,71,30.19,30.11,11,2,11,0.82
2013-7-6,84.3,74.9,69.2,74.1,69.5,66.1,97,84,65,30.18,30.05,25,4,25,0.06
2013-7-7,81.2,72.8,66.0,68.8,65.5,60.8,94,79,60,30.15,30.05,13,3,14,0.00
2013-7-8,81.6,71.7,63.4,74.2,67.5,61.5,97,87,74,30.17,30.07,20,2,20,1.25
2013-7-9,87.5,75.1,69.7,76.2,71.3,68.2,98,89,66,30.11,30.00,42,4,42,1.08
2013-7-10,89.1,75.2,65.8,77.9,71.2,64.3,98,88,66,30.03,29.83,28,4,44,0.24
2013-7-11,77.4,70.1,61.3,67.3,62.8,55.5,97,79,54,30.05,29.96,15,4,17,0.00
2013-7-12,78.3,68.2,54.6,62.9,59.1,53.3,97,74,51,30.13,30.05,20,4,20,0.00
2013-7-13,83.3,73.4,62.5,68.7,64.9,60.5,93,76,56,30.20,30.11,15,4,15,0.00
2013-7-14,88.7,78.8,69.0,74.1,70.3,66.1,92,76,59,30.27,30.19,16,4,16,0.00
2013-7-15,91.1,82.8,75.1,73.6,71.1,68.3,87,69,50,30.34,30.25,9,2,9,0.00
2013-7-16,92.7,82.2,70.9,75.4,72.3,69.7,96,74,51,30.35,30.26,10,1,10,0.00
2013-7-17,92.3,83.3,72.0,76.3,72.3,68.3,95,72,47,30.33,30.18,11,2,11,0.00
2013-7-18,94.3,81.2,72.2,76.4,72.8,68.9,95,78,48,30.22,30.04,13,1,13,0.00
2013-7-19,91.3,81.3,74.5,77.5,73.2,67.6,93,77,55,30.06,29.91,21,4,21,0.00
2013-7-20,80.2,74.4,70.0,74.1,70.6,67.5,95,88,76,29.96,29.87,19,3,19,0.72
2013-7-21,84.8,73.6,68.3,74.8,69.6,66.8,97,88,67,30.00,29.92,7,1,8,0.21
2013-7-22,74.8,72.2,69.2,71.3,70.1,68.3,98,93,85,29.96,29.79,15,2,15,2.25
2013-7-23,86.5,74.7,66.9,75.8,70.0,66.6,99,86,60,29.84,29.70,15,3,20,0.12
2013-7-24,73.5,68.9,65.7,67.6,61.6,55.9,91,78,58,29.98,29.81,17,5,17,0.00
2013-7-25,76.6,60.6,51.8,56.8,52.8,48.6,95,78,43,30.12,30.03,13,2,13,0.00
2013-7-26,81.0,68.8,55.0,63.1,58.2,53.6,95,71,48,30.13,30.01,12,2,12,0.00
2013-7-27,74.1,67.5,64.2,67.3,63.6,61.4,95,87,74,30.01,29.86,16,3,16,0.26
2013-7-28,72.0,62.0,55.2,61.5,56.3,49.0,96,83,50,30.09,29.90,18,2,18,0.00
2013-7-29,76.0,63.5,55.2,58.7,54.6,51.9,90,74,48,30.23,30.08,16,3,16,0.00
2013-7-30,81.2,68.4,55.3,64.0,58.4,54.1,96,73,45,30.28,30.17,11,1,11,0.00
2013-7-31,73.8,69.0,65.4,66.5,64.5,62.6,94,86,75,30.17,29.98,13,2,15,0.01
2013-8-1,80.8,72.3,65.9,67.2,63.9,58.4,97,77,48,29.99,29.92,14,3,16,0.03
2013-8-2,79.7,70.5,57.7,65.1,61.0,54.9,98,74,49,30.04,29.96,15,2,15,0.01
2013-8-3,80.0,70.5,63.1,68.0,63.8,59.5,96,81,52,30.04,29.99,15,2,15,0.27
2013-8-4,75.7,67.1,59.0,60.3,57.1,52.1,97,73,46,30.16,30.04,17,4,18,0.00
2013-8-5,77.3,65.2,52.6,60.5,56.3,51.5,96,75,46,30.18,30.03,9,2,9,0.00
2013-8-6,81.3,71.6,62.1,64.1,60.6,57.5,91,70,48,30.05,29.97,11,2,11,0.00
2013-8-7,86.2,75.3,65.4,73.9,68.6,62.6,93,81,61,29.98,29.90,12,2,13,0.00
2013-8-8,85.5,74.3,70.5,75.2,71.3,68.9,98,91,67,30.00,29.91,18,2,18,1.59
2013-8-9,80.5,72.2,66.7,71.5,67.6,61.4,99,87,55,30.06,29.92,12,2,12,0.46
2013-8-10,82.9,72.5,64.8,67.8,65.6,63.6,97,80,57,30.13,30.06,7,1,9,0.00
2013-8-11,83.3,73.4,63.6,72.6,67.1,62.6,97,82,61,30.13,30.04,13,2,13,0.00
2013-8-12,85.8,68.9,61.4,69.6,64.1,60.5,98,86,53,30.10,29.90,12,1,12,0.07
2013-8-13,76.4,69.4,57.6,69.8,61.7,50.3,97,78,48,30.06,29.85,19,4,19,0.01
2013-8-14,67.5,59.4,51.4,52.5,50.5,46.5,93,74,53,30.21,30.06,14,2,14,0.00
2013-8-15,73.9,61.2,48.9,56.1,51.9,47.9,97,75,46,30.24,30.13,11,2,13,0.00
2013-8-16,76.0,64.9,53.6,57.8,54.3,51.6,95,71,46,30.20,30.16,14,2,14,0.00
2013-8-17,79.7,68.1,57.1,64.1,58.2,54.0,90,72,50,30.24,30.17,14,3,14,0.00
2013-8-18,72.3,62.4,58.1,66.0,59.5,55.9,96,90,77,30.24,30.15,11,1,11,0.00
2013-8-19,82.0,71.1,61.6,67.5,63.5,58.4,98,79,49,30.18,30.10,10,1,10,0.00
2013-8-20,85.0,71.4,58.3,68.6,62.4,57.5,97,76,45,30.23,30.14,9,1,9,0.00
2013-8-21,84.5,71.3,63.0,71.1,65.4,61.5,95,83,59,30.21,30.09,11,2,11,0.00
2013-8-22,84.8,73.1,63.0,72.3,66.9,61.8,97,82,57,30.16,30.03,27,3,27,0.18
2013-8-23,83.0,71.7,67.9,69.6,66.6,57.5,98,85,48,30.18,30.05,15,2,15,1.33
2013-8-24,84.0,70.4,57.7,63.7,59.2,54.8,92,69,46,30.32,30.18,11,2,11,0.00
2013-8-25,84.7,71.8,58.8,65.9,60.7,57.1,96,71,43,30.39,30.25,13,2,13,0.00
2013-8-26,87.1,73.4,58.5,71.3,64.8,56.8,95,76,51,30.29,30.08,14,2,14,0.00
2013-8-27,84.7,76.3,69.2,75.4,71.1,66.8,93,84,71,30.09,29.96,12,2,12,0.00
2013-8-28,86.8,79.6,74.0,75.9,72.8,70.8,93,80,65,29.97,29.85,16,4,16,0.00
2013-8-29,83.2,71.8,68.2,71.7,68.8,67.0,97,91,63,30.07,29.98,11,2,11,0.00
2013-8-30,87.8,75.7,64.3,73.0,68.2,63.7,98,80,56,30.04,29.86,13,1,13,0.00
2013-8-31,84.7,73.2,70.0,73.8,68.9,66.5,97,87,64,29.88,29.79,20,2,20,0.77
2013-9-1,85.0,75.9,68.9,72.5,69.6,67.3,98,82,62,29.86,29.77,12,2,12,0.00
2013-9-2,83.0,75.3,69.2,73.9,69.1,60.5,97,82,63,29.90,29.79,19,3,19,0.04
2013-9-3,69.1,62.5,54.9,60.5,54.9,52.0,93,77,63,30.10,29.90,17,4,17,0.00
2013-9-4,81.4,65.0,49.3,61.2,56.1,48.5,97,76,45,30.19,30.10,14,2,14,0.00
2013-9-5,79.2,67.6,56.9,65.0,57.5,47.9,97,72,42,30.25,30.14,15,3,15,0.00
2013-9-6,75.5,61.3,46.8,53.3,48.8,42.0,96,68,32,30.31,30.16,11,1,11,0.00
2013-9-7,83.6,67.2,49.8,65.4,57.2,48.7,96,73,49,30.16,29.98,12,2,12,0.00
2013-9-8,81.8,74.1,67.6,69.7,66.3,63.0,90,77,64,30.05,29.97,12,3,14,0.00
2013-9-9,88.5,75.3,61.6,71.6,66.2,59.7,94,75,52,30.09,29.99,17,4,17,0.00
2013-9-10,92.5,82.2,74.2,75.6,72.1,68.5,85,72,54,30.14,30.05,16,4,16,0.00
2013-9-11,88.6,78.9,71.3,74.8,71.7,66.2,93,79,56,30.17,30.02,23,3,23,0.18
2013-9-12,77.6,72.1,63.7,72.0,68.0,60.3,96,87,63,30.03,29.86,18,3,18,0.43
2013-9-13,63.7,58.6,51.1,60.4,50.6,46.7,91,75,60,30.13,29.91,20,5,20,0.00
2013-9-14,69.0,55.1,42.2,48.6,45.2,40.9,96,72,43,30.23,30.13,17,2,17,0.00
2013-9-15,74.7,59.7,43.8,59.8,51.0,42.5,96,75,46,30.22,30.07,13,2,13,0.01
2013-9-16,70.3,61.8,55.5,58.1,54.6,50.3,97,79,50,30.35,30.13,17,4,17,0.11
2013-9-17,72.4,59.6,47.9,56.1,51.1,46.5,95,76,49,30.39,30.25,11,3,12,0.00
2013-9-18,75.4,58.2,54.7,64.1,54.5,51.8,94,88,64,30.25,30.11,8,3,12,0.00
2013-9-19,72.1,66.5,63.0,68.2,64.9,61.5,98,95,85,30.15,30.03,6,2,8,0.12
2013-9-20,84.2,73.1,64.1,71.7,67.1,63.5,99,83,59,30.05,29.83,13,3,15,0.02
2013-9-21,71.9,65.9,56.1,67.2,59.9,49.4,98,82,54,29.89,29.71,21,2,21,1.12
2013-9-22,64.8,56.0,49.0,49.4,46.9,43.7,94,73,49,30.08,29.89,14,2,14,0.00
2013-9-23,61.9,47.7,40.9,49.7,43.6,39.8,97,87,54,30.20,30.08,16,1,16,0.00
2013-9-24,68.3,53.4,39.9,50.1,45.5,39.1,97,77,46,30.18,30.00,13,2,13,0.00
2013-9-25,70.8,56.9,45.4,54.9,50.0,44.4,97,80,52,30.01,29.92,12,1,12,0.01
2013-9-26,78.0,62.1,48.4,58.2,49.7,44.6,97,69,32,30.13,29.98,9,2,13,0.00
2013-9-27,76.1,61.6,44.5,56.9,51.0,42.8,96,71,42,30.23,30.13,12,1,12,0.00
2013-9-28,78.6,63.3,49.9,59.2,53.8,48.8,96,74,43,30.25,30.12,16,2,16,0.00
2013-9-29,74.3,63.6,54.3,61.4,57.4,52.8,95,81,57,30.13,30.02,13,2,13,0.00
2013-9-30,73.6,65.0,59.5,62.8,59.6,57.4,95,83,63,30.08,29.99,12,2,12,0.03
2013-10-1,79.5,65.9,53.7,63.8,58.5,52.9,98,79,49,30.13,30.04,10,1,14,0.01
2013-10-2,84.0,68.5,56.1,67.5,62.3,54.7,97,82,57,30.16,30.06,10,1,10,0.00
2013-10-3,79.0,70.5,65.6,68.8,66.2,64.1,97,87,67,30.12,30.05,20,2,20,0.01
2013-10-4,84.3,69.5,60.3,68.6,65.0,59.5,98,87,52,30.13,30.05,12,2,20,0.09
2013-10-5,82.5,72.5,64.5,72.1,67.2,63.0,96,84,61,30.10,29.98,18,2,18,0.08
2013-10-6,79.3,68.3,52.5,68.4,65.7,50.7,97,92,62,29.98,29.73,34,3,34,1.63
2013-10-7,61.1,53.1,45.9,52.2,46.3,42.7,97,79,52,30.22,29.83,19,4,19,0.43
2013-10-8,66.9,53.0,39.3,50.7,44.3,38.5,98,76,45,30.34,30.21,14,2,15,0.00
2013-10-9,69.8,55.2,45.2,49.6,45.1,42.9,95,72,38,30.34,30.23,15,3,15,0.00
2013-10-10,77.5,56.8,41.2,53.9,46.3,39.7,96,72,39,30.25,30.11,9,1,9,0.00
2013-10-11,76.0,60.5,44.5,56.5,49.6,43.2,95,71,38,30.16,30.06,14,2,14,0.00
2013-10-12,72.9,61.7,51.9,60.6,56.2,50.9,97,83,64,30.18,30.09,13,1,13,0.00
2013-10-13,71.0,62.2,56.4,62.0,58.2,54.1,95,87,72,30.33,30.17,14,2,14,0.00
2013-10-14,71.7,58.8,47.2,54.0,50.8,45.8,96,77,52,30.38,30.24,15,2,15,0.00
2013-10-15,70.4,59.2,47.6,62.8,55.7,46.0,98,89,76,30.26,29.99,10,2,10,0.00
2013-10-16,66.8,63.7,56.2,62.9,59.7,48.7,93,87,75,30.00,29.90,18,4,18,0.04
2013-10-17,56.1,48.9,40.3,49.5,45.6,39.3,98,88,76,30.02,29.88,15,2,15,0.22
2013-10-18,63.7,52.1,42.0,48.6,43.8,40.9,97,76,48,30.10,30.00,18,3,18,0.01
2013-10-19,51.2,46.1,40.4,47.1,42.9,38.8,95,89,76,30.04,29.85,19,3,19,0.14
2013-10-20,60.9,48.6,38.4,43.0,39.7,36.3,94,73,47,30.09,30.04,15,5,19,0.00
2013-10-21,66.0,54.4,40.3,48.9,40.1,36.7,87,61,36,30.08,29.92,21,4,22,0.00
2013-10-22,53.9,43.9,34.5,48.9,33.5,28.0,90,69,44,30.09,29.94,18,4,18,0.11
2013-10-23,45.9,39.6,34.5,38.1,35.9,32.4,96,87,63,30.08,29.84,23,4,23,0.47
2013-10-24,45.2,38.2,33.7,35.4,32.8,28.0,94,82,58,30.29,30.06,23,3,23,0.00
2013-10-25,48.7,37.6,28.4,34.6,29.8,26.7,96,75,45,30.48,30.29,16,2,16,0.00
2013-10-26,47.8,40.8,32.9,36.2,30.1,26.8,79,66,48,30.34,29.98,17,6,24,0.00
2013-10-27,55.9,36.8,28.5,38.7,32.2,27.5,96,85,45,30.18,30.09,12,0,12,0.00
2013-10-28,61.6,44.0,29.5,40.3,34.4,28.2,96,73,39,30.36,30.16,9,1,9,0.00
2013-10-29,59.2,46.9,33.4,42.8,38.4,32.1,97,75,47,30.44,30.28,8,1,8,0.00
2013-10-30,64.5,55.5,47.5,58.1,50.0,40.7,96,82,70,30.28,30.08,8,2,8,0.00
2013-10-31,65.9,63.1,59.2,60.7,58.3,56.9,96,85,73,30.08,29.39,34,8,34,0.40
2013-11-1,64.1,56.3,50.3,62.0,48.6,44.0,94,76,56,29.77,29.36,33,6,33,0.30
2013-11-2,53.1,49.1,44.3,43.9,41.1,37.3,88,74,58,30.10,29.76,16,5,16,0.00
2013-11-3,52.6,43.8,37.7,41.1,37.4,32.6,95,80,53,30.48,30.10,10,1,10,0.00
2013-11-4,54.9,44.3,33.9,39.5,34.4,29.6,85,69,51,30.52,30.39,18,5,18,0.00
2013-11-5,63.1,53.2,47.2,42.7,39.9,37.8,74,61,44,30.50,30.30,11,3,11,0.00
2013-11-6,69.0,57.9,46.1,58.4,46.9,36.1,96,69,45,30.30,29.99,17,6,24,0.40
2013-11-7,50.2,43.1,37.8,48.3,34.4,25.9,95,73,47,30.25,30.02,22,6,22,0.16
2013-11-8,45.7,37.7,32.0,34.6,31.6,28.7,94,80,53,30.42,30.23,17,2,17,0.00
2013-11-9,59.9,47.6,33.5,35.8,31.9,28.4,89,57,37,30.33,30.05,33,6,33,0.00
2013-11-10,47.5,43.4,29.1,38.8,34.3,26.4,91,71,49,30.39,30.10,23,6,28,0.00
2013-11-11,49.7,39.3,27.0,43.0,33.2,25.2,94,80,58,30.38,30.12,22,4,22,0.05
2013-11-12,32.9,28.8,25.0,31.4,23.7,20.1,96,81,68,30.65,30.28,20,6,20,0.00
2013-11-13,37.5,29.6,21.0,23.8,20.7,17.6,94,71,47,30.69,30.47,18,3,18,0.00
2013-11-14,52.5,38.4,29.7,26.4,22.3,18.9,71,54,28,30.47,30.23,17,6,21,0.00
2013-11-15,52.1,46.6,36.0,41.8,27.6,20.1,78,48,36,30.25,30.17,16,4,16,0.00
2013-11-16,60.9,52.8,45.7,53.8,47.5,41.0,89,82,76,30.23,29.99,18,4,18,0.00
2013-11-17,61.2,58.6,51.8,59.2,53.9,41.2,95,85,55,29.99,29.54,34,10,34,0.88
2013-11-18,51.7,45.4,36.4,41.7,35.6,26.8,85,69,49,30.22,29.79,28,8,28,0.00
2013-11-19,40.5,35.4,29.0,28.0,26.2,24.6,85,69,56,30.45,30.21,15,3,15,0.00
2013-11-20,48.6,37.2,27.4,30.9,27.2,23.6,87,68,48,30.45,30.33,21,5,21,0.00
2013-11-21,56.2,47.4,39.0,45.2,37.1,28.8,85,68,55,30.43,30.26,9,2,11,0.05
2013-11-22,52.2,47.7,35.8,51.2,44.9,29.6,97,90,76,30.40,30.19,24,5,24,0.31
2013-11-23,36.7,30.2,20.8,30.1,23.0,8.4,91,75,54,30.58,30.34,26,6,26,0.00
2013-11-24,25.4,19.8,15.2,15.1,9.5,3.9,83,65,46,30.73,30.57,18,4,18,0.00
2013-11-25,36.6,27.1,15.9,28.1,16.2,11.3,85,65,42,30.63,30.28,22,3,22,0.00
2013-11-26,33.2,31.4,29.7,31.7,29.8,28.1,97,94,85,30.29,29.95,7,1,7,0.01
2013-11-27,30.7,26.9,22.5,28.8,20.5,12.5,96,77,53,30.32,29.93,23,6,23,0.00
2013-11-28,30.9,25.8,18.8,24.1,19.3,15.1,93,77,62,30.51,30.32,15,3,15,0.00
2013-11-29,35.5,28.3,20.7,23.4,21.1,17.7,94,75,57,30.71,30.51,9,2,9,0.03
2013-11-30,44.3,32.7,24.8,30.9,25.6,20.4,84,75,58,30.64,30.26,12,3,12,0.03
2013-12-1,45.7,39.7,30.2,36.1,31.3,26.2,87,72,63,30.26,30.02,13,3,13,0.00
2013-12-2,47.7,39.4,33.1,39.0,35.0,31.0,93,85,70,30.02,29.88,8,1,8,0.04
2013-12-3,53.6,43.6,34.6,46.0,40.0,33.3,96,88,75,29.95,29.88,9,3,9,0.01
2013-12-4,62.8,54.1,44.4,54.5,48.6,41.8,91,82,72,29.98,29.82,14,4,14,0.00
2013-12-5,64.8,51.7,32.9,59.8,47.4,30.3,96,85,71,30.18,29.82,17,6,17,0.45
2013-12-6,33.0,30.9,26.0,30.7,28.9,24.1,96,92,89,30.43,30.15,11,4,15,0.08
2013-12-7,26.6,23.2,15.8,24.2,17.1,12.2,93,78,63,30.68,30.43,15,4,15,0.00
2013-12-8,30.4,23.4,15.5,29.5,20.0,12.1,97,87,78,30.65,30.09,20,6,20,0.00
2013-12-9,33.7,30.8,25.4,33.1,27.3,19.2,98,87,77,30.28,30.06,22,5,22,0.05
2013-12-10,26.7,21.9,18.3,19.7,16.8,13.7,93,81,66,30.42,30.20,24,5,24,0.00
2013-12-11,32.4,22.1,14.7,23.2,16.3,11.1,91,78,66,30.56,30.35,22,4,22,0.00
2013-12-12,19.8,15.6,10.8,12.5,7.0,2.2,90,69,50,30.61,30.41,16,4,16,0.00
2013-12-13,34.8,26.3,15.8,27.8,17.2,8.5,92,68,57,30.41,30.27,13,3,13,0.00
2013-12-14,37.5,33.3,29.6,37.0,32.3,27.8,98,96,92,30.30,29.77,16,5,16,0.52
2013-12-15,33.7,26.1,23.7,32.4,21.6,14.9,95,83,67,30.18,29.84,25,8,25,0.00
2013-12-16,28.5,24.0,20.3,27.2,21.0,18.1,95,88,77,30.25,30.08,16,4,16,0.00
2013-12-17,33.3,28.6,26.7,31.0,25.4,23.1,97,88,80,30.21,30.04,19,5,19,0.00
2013-12-18,33.8,26.7,24.0,24.6,21.0,18.6,91,79,55,30.33,30.14,16,4,16,0.00
2013-12-19,51.4,43.5,33.2,41.6,30.3,19.3,69,60,50,30.17,30.03,17,4,17,0.00
2013-12-20,57.7,52.0,49.0,54.4,40.7,32.5,94,66,47,30.03,29.89,18,7,20,0.05
2013-12-21,68.2,60.1,56.3,62.0,57.5,54.3,96,91,77,29.89,29.51,32,7,32,0.93
2013-12-22,68.3,56.0,42.6,61.5,51.2,39.5,95,84,70,30.06,29.50,31,8,31,0.43
2013-12-23,42.5,33.3,27.6,39.5,27.2,19.3,93,78,69,30.42,30.04,19,6,19,0.05
2013-12-24,27.7,21.2,12.5,22.7,15.6,6.5,90,79,70,30.65,30.39,20,6,20,0.00
2013-12-25,32.0,23.8,13.2,26.2,15.7,9.6,85,72,47,30.62,30.26,17,4,17,0.00
2013-12-26,37.2,32.2,25.1,27.3,23.3,19.6,84,70,51,30.42,30.24,24,6,24,0.00
2013-12-27,45.1,36.6,28.8,32.6,27.5,22.2,79,69,58,30.48,30.34,17,4,17,0.00
2013-12-28,52.0,42.4,36.3,35.4,30.3,26.7,76,62,51,30.34,30.08,19,5,19,0.00
2013-12-29,43.6,39.3,33.3,40.2,34.6,26.3,96,84,51,30.09,29.82,21,3,21,0.41
2013-12-30,33.2,27.4,24.4,28.6,21.7,18.8,88,79,71,30.30,30.03,21,4,21,0.00
2013-12-31,28.1,24.6,21.6,22.2,18.1,14.5,87,76,66,30.42,30.20,26,5,26,0.00
2014-1-1,39.9,30.7,21.5,30.0,24.6,18.2,89,79,63,30.40,30.11,12,2,12,0.00
2014-1-2,30.7,22.6,10.9,26.2,19.7,6.3,96,88,80,30.26,29.84,29,7,29,0.00